Archiv-/Tagesdaten

--Timestamp---	Temp	Chill	HIndex	Humid	Dewpt	Wind	HiWind	WindDir	Rain	Barom	Solar	ET	UV
--------------	----	-----	------	-----	-----	----	------	-------	----	-----	-----	--	--
20070912 00:05	10.4	10.4	10.4	85	8.0	2	6	247	0.00	1024.115	0	0.000	0
20070912 00:10	10.5	10.5	10.5	85	8.1	2	6	247	0.00	1024.081	0	0.000	0
20070912 00:15	10.5	10.5	10.5	85	8.1	2	6	247	0.00	1024.148	0	0.000	0
20070912 00:20	10.4	10.4	10.4	86	8.2	2	5	247	0.00	1024.182	0	0.000	0
20070912 00:25	10.4	10.4	10.4	85	8.0	3	6	247	0.00	1024.115	0	0.000	0
20070912 00:30	10.4	10.4	10.4	86	8.2	2	5	247	0.00	1024.148	0	0.000	0
20070912 00:35	10.4	10.4	10.4	85	8.0	3	6	247	0.00	1024.182	0	0.000	0
20070912 00:40	10.4	10.4	10.4	85	8.0	3	5	247	0.00	1024.148	0	0.000	0
20070912 00:45	10.4	10.4	10.4	86	8.2	3	6	247	0.00	1024.182	0	0.000	0
20070912 00:50	10.4	10.4	10.4	86	8.1	2	6	247	0.00	1024.148	0	0.000	0
20070912 00:55	10.4	10.4	10.4	86	8.1	3	6	247	0.00	1024.148	0	0.000	0
20070912 01:00	10.3	10.3	10.3	86	8.1	2	6	247	0.00	1024.182	0	0.020	0
20070912 01:05	10.3	10.3	10.3	86	8.1	2	3	247	0.00	1024.115	0	0.000	0
20070912 01:10	10.3	10.3	10.3	86	8.1	2	5	247	0.00	1024.047	0	0.000	0
20070912 01:15	10.3	10.3	10.3	86	8.1	2	5	247	0.00	1024.115	0	0.000	0
20070912 01:20	10.3	10.3	10.3	86	8.1	2	5	247	0.00	1024.013	0	0.000	0
20070912 01:25	10.3	10.3	10.3	85	7.9	2	6	247	0.00	1023.979	0	0.000	0
20070912 01:30	10.3	10.3	10.3	85	7.9	2	6	247	0.00	1023.945	0	0.000	0
20070912 01:35	10.3	10.3	10.3	85	7.9	2	6	247	0.00	1023.911	0	0.000	0
20070912 01:40	10.3	10.3	10.3	85	7.9	2	10	247	0.00	1023.979	0	0.000	0
20070912 01:45	10.3	10.3	10.3	85	7.9	2	5	247	0.00	1023.945	0	0.000	0
20070912 01:50	10.3	10.3	10.3	85	7.9	2	6	247	0.00	1023.911	0	0.000	0
20070912 01:55	10.3	10.3	10.3	85	7.9	2	6	247	0.00	1023.844	0	0.000	0
20070912 02:00	10.3	10.3	10.3	85	7.9	0	5	247	0.00	1023.810	0	0.000	0
20070912 02:05	10.3	10.3	10.3	85	7.9	0	3	247	0.00	1023.708	0	0.000	0
20070912 02:10	10.3	10.3	10.3	85	7.9	2	5	247	0.00	1023.810	0	0.000	0
20070912 02:15	10.3	10.3	10.3	85	7.9	2	5	247	0.00	1023.776	0	0.000	0
20070912 02:20	10.3	10.3	10.3	86	8.1	2	5	247	0.00	1023.810	0	0.000	0
20070912 02:25	10.3	10.3	10.3	86	8.0	2	3	247	0.00	1023.844	0	0.000	0
20070912 02:30	10.3	10.3	10.3	86	8.0	2	5	247	0.00	1023.844	0	0.000	0
20070912 02:35	10.3	10.3	10.3	87	8.2	0	5	247	0.00	1023.776	0	0.000	0
20070912 02:40	10.2	10.2	10.2	87	8.2	2	3	247	0.00	1023.742	0	0.000	0
20070912 02:45	10.2	10.2	10.2	86	8.0	2	5	247	0.00	1023.810	0	0.000	0
20070912 02:50	10.2	10.2	10.2	87	8.2	2	5	247	0.00	1023.776	0	0.000	0
20070912 02:55	10.2	10.2	10.2	86	8.0	2	5	247	0.00	1023.878	0	0.000	0
20070912 03:00	10.2	10.2	10.2	86	8.0	2	3	247	0.00	1023.810	0	0.000	0
20070912 03:05	10.3	10.3	10.3	86	8.0	2	5	247	0.00	1023.742	0	0.000	0
20070912 03:10	10.3	10.3	10.3	86	8.0	2	5	247	0.00	1023.674	0	0.000	0
20070912 03:15	10.3	10.3	10.3	86	8.0	2	5	247	0.00	1023.674	0	0.000	0
20070912 03:20	10.3	10.3	10.3	86	8.0	2	5	247	0.00	1023.742	0	0.000	0
20070912 03:25	10.3	10.3	10.3	86	8.1	2	5	247	0.00	1023.640	0	0.000	0
20070912 03:30	10.3	10.3	10.3	87	8.2	2	5	247	0.00	1023.674	0	0.000	0
20070912 03:35	10.3	10.3	10.3	87	8.2	2	5	247	0.00	1023.674	0	0.000	0
20070912 03:40	10.3	10.3	10.3	87	8.3	3	6	247	0.00	1023.640	0	0.000	0
20070912 03:45	10.3	10.3	10.3	86	8.1	2	6	247	0.00	1023.640	0	0.000	0
20070912 03:50	10.4	10.4	10.4	86	8.1	3	5	247	0.00	1023.674	0	0.000	0
20070912 03:55	10.4	10.4	10.4	86	8.1	2	5	247	0.00	1023.607	0	0.000	0
20070912 04:00	10.3	10.3	10.3	86	8.1	2	5	247	0.00	1023.607	0	0.000	0
20070912 04:05	10.3	10.3	10.3	86	8.1	3	6	247	0.00	1023.742	0	0.000	0
20070912 04:10	10.3	10.3	10.3	87	8.2	2	5	247	0.00	1023.742	0	0.000	0
20070912 04:15	10.3	10.3	10.3	86	8.0	2	5	247	0.00	1023.674	0	0.000	0
20070912 04:20	10.3	10.3	10.3	87	8.2	2	6	247	0.00	1023.708	0	0.000	0
20070912 04:25	10.3	10.3	10.3	87	8.2	2	5	247	0.00	1023.742	0	0.000	0
20070912 04:30	10.3	10.3	10.3	87	8.2	2	5	247	0.00	1023.742	0	0.000	0
20070912 04:35	10.3	10.3	10.3	87	8.2	2	3	247	0.00	1023.742	0	0.000	0
20070912 04:40	10.3	10.3	10.3	87	8.2	2	3	247	0.00	1023.708	0	0.000	0
20070912 04:45	10.3	10.3	10.3	87	8.2	0	5	247	0.00	1023.674	0	0.000	0
20070912 04:50	10.3	10.3	10.3	87	8.3	0	3	247	0.00	1023.674	0	0.000	0
20070912 04:55	10.3	10.3	10.3	87	8.3	2	3	247	0.00	1023.708	0	0.000	0
20070912 05:00	10.3	10.3	10.3	87	8.3	2	5	247	0.00	1023.674	0	0.000	0
20070912 05:05	10.3	10.3	10.3	87	8.3	0	3	247	0.00	1023.640	0	0.000	0
20070912 05:10	10.3	10.3	10.3	87	8.3	2	5	247	0.00	1023.505	0	0.000	0
20070912 05:15	10.4	10.4	10.4	87	8.3	2	5	247	0.00	1023.505	0	0.000	0
20070912 05:20	10.4	10.4	10.4	88	8.5	2	5	247	0.00	1023.471	0	0.000	0
20070912 05:25	10.4	10.4	10.4	87	8.3	2	5	247	0.00	1023.437	0	0.000	0
20070912 05:30	10.4	10.4	10.4	87	8.3	2	5	247	0.00	1023.437	0	0.000	0
20070912 05:35	10.3	10.3	10.3	88	8.4	2	3	247	0.00	1023.403	0	0.000	0
20070912 05:40	10.3	10.3	10.3	88	8.4	2	5	247	0.00	1023.437	0	0.000	0
20070912 05:45	10.3	10.3	10.3	88	8.4	0	3	247	0.00	1023.505	0	0.000	0
20070912 05:50	10.3	10.3	10.3	89	8.5	0	3	247	0.00	1023.437	0	0.000	0
20070912 05:55	10.3	10.3	10.3	89	8.5	2	3	247	0.00	1023.471	0	0.000	0
20070912 06:00	10.3	10.3	10.3	89	8.5	0	3	247	0.20	1023.437	0	0.000	0
20070912 06:05	10.3	10.3	10.3	89	8.5	0	3	247	0.00	1023.573	0	0.000	0
20070912 06:10	10.2	10.2	10.2	89	8.5	0	5	247	0.00	1023.573	0	0.000	0
20070912 06:15	10.2	10.2	10.2	90	8.7	0	2	247	0.00	1023.539	0	0.000	0
20070912 06:20	10.2	10.2	10.2	90	8.7	0	2	247	0.00	1023.505	0	0.000	0
20070912 06:25	10.2	10.2	10.2	90	8.7	0	2	247	0.00	1023.539	0	0.000	0
20070912 06:30	10.2	10.2	10.2	90	8.6	0	2	247	0.00	1023.539	0	0.000	0
20070912 06:35	10.2	10.2	10.2	90	8.6	0	2	247	0.00	1023.505	0	0.000	0
20070912 06:40	10.2	10.2	10.2	90	8.6	0	2	247	0.00	1023.573	0	0.000	0
20070912 06:45	10.2	10.2	10.2	90	8.6	0	3	247	0.00	1023.505	0	0.000	0
20070912 06:50	10.2	10.2	10.2	91	8.8	0	0	247	0.00	1023.607	0	0.000	0
20070912 06:55	10.2	10.2	10.2	91	8.8	0	2	247	0.00	1023.607	2	0.000	0
20070912 07:00	10.3	10.3	10.3	90	8.7	0	2	247	0.00	1023.607	6	0.000	0
20070912 07:05	10.3	10.3	10.3	89	8.5	0	3	247	0.00	1023.674	9	0.000	0
20070912 07:10	10.3	10.3	10.3	90	8.7	0	3	247	0.00	1023.810	9	0.000	0
20070912 07:15	10.3	10.3	10.3	90	8.7	0	2	247	0.00	1023.844	11	0.000	0
20070912 07:20	10.3	10.3	10.3	90	8.7	0	2	247	0.00	1023.878	12	0.000	0
20070912 07:25	10.3	10.3	10.3	90	8.7	0	2	247	0.00	1023.911	13	0.000	0
20070912 07:30	10.3	10.3	10.3	90	8.7	0	0	247	0.00	1023.979	17	0.000	0
20070912 07:35	10.3	10.3	10.3	90	8.8	0	2	247	0.00	1024.081	19	0.000	0
20070912 07:40	10.3	10.3	10.3	90	8.8	0	2	247	0.00	1024.047	22	0.000	0
20070912 07:45	10.4	10.4	10.4	90	8.8	0	2	247	0.00	1024.115	23	0.000	0
20070912 07:50	10.4	10.4	10.4	90	8.9	0	2	247	0.00	1024.115	24	0.000	0
20070912 07:55	10.5	10.5	10.5	89	8.8	0	3	247	0.00	1024.148	26	0.000	0
20070912 08:00	10.5	10.5	10.5	89	8.8	0	2	247	0.00	1024.115	31	0.000	0
20070912 08:05	10.6	10.6	10.6	90	9.0	0	2	247	0.00	1024.216	33	0.000	0
20070912 08:10	10.6	10.6	10.6	89	8.9	2	5	247	0.00	1024.182	32	0.000	0
20070912 08:15	10.7	10.7	10.7	89	8.9	0	3	247	0.00	1024.318	32	0.000	0
20070912 08:20	10.7	10.7	10.7	88	8.8	0	3	247	0.00	1024.419	32	0.000	0
20070912 08:25	10.8	10.8	10.8	88	8.9	0	3	247	0.00	1024.385	33	0.000	0
20070912 08:30	10.8	10.8	10.8	87	8.7	0	2	247	0.00	1024.419	36	0.000	0
20070912 08:35	10.8	10.8	10.8	88	8.9	0	2	247	0.00	1024.419	40	0.000	0
20070912 08:40	10.8	10.8	10.8	88	8.9	0	2	247	0.00	1024.419	38	0.000	0
20070912 08:45	10.9	10.9	10.9	87	8.8	0	0	247	0.00	1024.487	38	0.000	0
20070912 08:50	10.9	10.9	10.9	87	8.9	0	2	247	0.00	1024.453	42	0.000	0
20070912 08:55	10.9	10.9	10.9	87	8.9	0	0	247	0.00	1024.487	45	0.000	0
20070912 09:00	11.0	11.0	11.0	87	8.9	0	2	247	0.00	1024.487	54	0.020	0
20070912 09:05	11.0	11.0	11.0	87	8.9	0	3	247	0.00	1024.555	52	0.000	0
20070912 09:10	11.1	11.1	11.1	87	9.0	2	3	247	0.00	1024.555	53	0.000	0
20070912 09:15	11.1	11.1	11.1	87	9.0	0	3	247	0.00	1024.656	52	0.000	0
20070912 09:20	11.1	11.1	11.1	87	9.0	0	2	247	0.00	1024.656	56	0.000	0
20070912 09:25	11.2	11.2	11.2	87	9.1	0	3	247	0.00	1024.758	54	0.000	0
20070912 09:30	11.2	11.2	11.2	87	9.1	0	5	247	0.00	1024.656	61	0.000	0
20070912 09:35	11.2	11.2	11.2	86	9.0	2	5	247	0.00	1024.826	65	0.000	0
20070912 09:40	11.2	11.2	11.2	86	9.0	0	0	247	0.00	1024.859	68	0.000	0
20070912 09:45	11.3	11.3	11.3	87	9.2	0	3	247	0.00	1024.792	76	0.000	0
20070912 09:50	11.3	11.3	11.3	86	9.0	0	3	247	0.00	1024.859	72	0.000	0
20070912 09:55	11.3	11.3	11.3	86	9.1	0	3	247	0.00	1024.859	79	0.000	0
20070912 10:00	11.4	11.4	11.4	87	9.3	0	2	247	0.00	1024.758	85	0.020	0
20070912 10:05	11.4	11.4	11.4	85	9.0	2	6	247	0.00	1024.826	89	0.000	1
20070912 10:10	11.4	11.4	11.4	86	9.2	0	3	247	0.00	1024.758	98	0.000	1
20070912 10:15	11.4	11.4	11.4	86	9.2	0	2	247	0.00	1024.758	97	0.000	1
20070912 10:20	11.5	11.5	11.5	86	9.2	0	5	247	0.00	1024.758	92	0.000	1
20070912 10:25	11.6	11.6	11.6	86	9.3	0	2	247	0.00	1024.792	99	0.000	1
20070912 10:30	11.6	11.6	11.6	86	9.3	0	2	247	0.00	1024.792	98	0.000	1
20070912 10:35	11.7	11.7	11.7	86	9.4	0	5	247	0.00	1024.859	99	0.000	1
20070912 10:40	11.7	11.7	11.7	85	9.2	0	3	247	0.00	1024.927	112	0.000	1
20070912 10:45	11.7	11.7	11.7	85	9.3	0	5	247	0.00	1024.893	128	0.000	1
20070912 10:50	11.8	11.8	11.8	85	9.3	2	5	247	0.00	1024.893	165	0.000	1
20070912 10:55	11.8	11.8	11.8	85	9.4	0	2	247	0.00	1024.826	166	0.000	1
20070912 11:00	11.9	11.9	11.9	85	9.5	0	5	247	0.00	1024.859	206	0.040	2
20070912 11:05	12.1	12.1	12.1	84	9.5	0	2	247	0.00	1024.859	220	0.000	2
20070912 11:10	12.2	12.2	12.2	83	9.4	0	3	247	0.00	1024.792	242	0.000	2
20070912 11:15	12.3	12.3	12.3	83	9.5	0	3	247	0.00	1024.792	232	0.000	2
20070912 11:20	12.4	12.4	12.4	83	9.6	0	3	247	0.00	1024.792	238	0.000	2
20070912 11:25	12.5	12.5	12.5	82	9.5	0	3	247	0.00	1024.656	232	0.000	2
20070912 11:30	12.6	12.6	12.6	82	9.6	0	2	247	0.00	1024.656	238	0.000	2
20070912 11:35	12.8	12.8	12.8	81	9.6	0	3	247	0.00	1024.690	316	0.000	3
20070912 11:40	12.9	12.9	12.9	80	9.6	2	6	247	0.00	1024.623	342	0.000	3
20070912 11:45	13.1	13.1	13.1	80	9.7	2	3	247	0.00	1024.623	338	0.000	3
20070912 11:50	13.2	13.2	13.2	79	9.7	2	5	247	0.00	1024.656	349	0.000	3
20070912 11:55	13.3	13.3	13.3	78	9.6	2	6	292	0.00	1024.690	324	0.000	3
20070912 12:00	13.5	13.5	13.5	80	10.1	0	6	292	0.00	1024.656	294	0.100	2
20070912 12:05	13.6	13.6	13.6	78	9.8	2	5	22	0.00	1024.724	269	0.000	2
20070912 12:10	13.5	13.5	13.5	79	9.9	2	5	22	0.00	1024.656	310	0.000	3
20070912 12:15	13.6	13.6	13.6	78	9.8	3	6	22	0.00	1024.724	265	0.000	3
20070912 12:20	13.7	13.7	13.7	78	10.0	2	5	315	0.00	1024.555	271	0.000	3
20070912 12:25	13.8	13.8	13.8	76	9.7	2	3	315	0.00	1024.521	382	0.000	4
20070912 12:30	14.1	14.1	14.1	77	10.1	2	5	315	0.00	1024.521	478	0.000	4
20070912 12:35	14.2	14.2	14.2	76	10.0	2	6	292	0.00	1024.555	378	0.000	4
20070912 12:40	14.3	14.3	14.3	75	9.9	3	8	292	0.00	1024.521	368	0.000	4
20070912 12:45	14.3	14.3	14.3	75	10.0	2	5	292	0.00	1024.521	403	0.000	4
20070912 12:50	14.5	14.5	14.5	77	10.5	0	5	45	0.00	1024.589	527	0.000	4
20070912 12:55	14.8	14.8	14.8	73	10.0	0	5	292	0.00	1024.453	425	0.000	4
20070912 13:00	15.0	15.0	15.0	73	10.2	0	2	292	0.00	1024.521	372	0.160	3
20070912 13:05	15.0	15.0	15.0	71	9.8	0	3	292	0.00	1024.521	344	0.000	3
20070912 13:10	15.0	15.0	15.0	73	10.2	0	5	292	0.00	1024.521	376	0.000	3
20070912 13:15	15.0	15.0	15.0	73	10.2	0	2	0	0.00	1024.521	363	0.000	3
20070912 13:20	15.0	15.0	15.0	71	9.8	2	5	0	0.00	1024.521	370	0.000	3
20070912 13:25	15.0	15.0	15.0	72	10.0	2	6	0	0.00	1024.487	424	0.000	4
20070912 13:30	15.0	15.0	15.0	72	10.0	2	6	22	0.00	1024.453	526	0.000	4
20070912 13:35	15.0	15.0	15.0	73	10.2	3	6	22	0.00	1024.453	392	0.000	3
20070912 13:40	15.0	15.0	15.0	72	10.0	2	6	112	0.00	1024.419	345	0.000	3
20070912 13:45	15.2	15.2	15.2	73	10.4	2	6	22	0.00	1024.385	598	0.000	5
20070912 13:50	15.4	15.4	15.4	71	10.2	5	11	45	0.00	1024.419	641	0.000	4
20070912 13:55	15.4	15.4	15.4	70	9.9	5	10	45	0.00	1024.453	275	0.000	3
20070912 14:00	15.2	15.2	15.2	70	9.8	5	8	67	0.00	1024.487	229	0.180	3
20070912 14:05	15.1	15.1	15.1	71	9.8	5	8	67	0.00	1024.555	280	0.000	3
20070912 14:10	15.1	15.1	15.1	68	9.2	5	10	45	0.00	1024.521	352	0.000	4
20070912 14:15	15.3	15.3	15.3	68	9.4	2	6	22	0.00	1024.589	554	0.000	4
20070912 14:20	15.6	15.6	15.6	68	9.7	3	8	90	0.00	1024.385	507	0.000	4
20070912 14:25	15.7	15.7	15.7	67	9.6	3	10	45	0.00	1024.385	537	0.000	4
20070912 14:30	15.9	15.9	15.9	67	9.8	3	8	22	0.00	1024.419	461	0.000	3
20070912 14:35	15.9	15.9	15.9	66	9.5	3	8	22	0.00	1024.385	405	0.000	3
20070912 14:40	16.0	16.0	16.0	66	9.6	0	3	67	0.00	1024.352	378	0.000	3
20070912 14:45	16.2	16.2	16.2	66	9.9	3	10	22	0.00	1024.352	348	0.000	3
20070912 14:50	16.3	16.3	16.3	64	9.5	5	8	45	0.00	1024.385	777	0.000	4
20070912 14:55	16.3	16.3	16.3	66	9.9	3	6	67	0.00	1024.284	409	0.000	3
20070912 15:00	16.3	16.3	16.3	64	9.5	2	5	135	0.00	1024.250	543	0.200	3
20070912 15:05	16.3	16.3	16.3	65	9.7	3	8	67	0.00	1024.182	364	0.000	3
20070912 15:10	16.3	16.3	16.3	66	10.0	2	5	67	0.00	1024.115	318	0.000	2
20070912 15:15	16.3	16.3	16.3	64	9.5	3	8	67	0.00	1024.148	371	0.000	2
20070912 15:20	16.2	16.2	16.2	63	9.2	3	6	67	0.00	1024.182	307	0.000	2
20070912 15:25	16.1	16.1	16.1	63	9.1	2	5	90	0.00	1024.182	287	0.000	2
20070912 15:30	16.1	16.1	16.1	62	8.8	2	5	67	0.00	1024.148	279	0.000	2
20070912 15:35	16.2	16.2	16.2	65	9.6	0	2	135	0.00	1024.047	294	0.000	2
20070912 15:40	16.2	16.2	16.2	66	9.9	3	8	45	0.00	1024.081	302	0.000	2
20070912 15:45	16.3	16.3	16.3	63	9.2	3	5	22	0.00	1024.115	284	0.000	2
20070912 15:50	16.2	16.2	16.2	62	8.9	3	5	45	0.00	1024.047	251	0.000	2
20070912 15:55	16.1	16.1	16.1	64	9.3	2	5	22	0.00	1024.047	247	0.000	2
20070912 16:00	16.2	16.2	16.2	63	9.2	2	6	22	0.00	1023.979	213	0.140	2
20070912 16:05	16.2	16.2	16.2	61	8.6	2	6	22	0.00	1023.979	172	0.000	2
20070912 16:10	16.1	16.1	16.1	61	8.5	2	8	22	0.00	1023.979	138	0.000	1
20070912 16:15	16.0	16.0	16.0	64	9.2	0	2	22	0.00	1023.878	124	0.000	1
20070912 16:20	16.0	16.0	16.0	62	8.7	2	6	292	0.00	1023.911	135	0.000	1
20070912 16:25	16.0	16.0	16.0	61	8.5	2	5	292	0.00	1023.911	154	0.000	1
20070912 16:30	16.1	16.1	16.1	61	8.5	0	3	292	0.00	1023.979	201	0.000	1
20070912 16:35	16.1	16.1	16.1	62	8.8	2	6	292	0.00	1023.945	216	0.000	1
20070912 16:40	16.2	16.2	16.2	61	8.6	2	5	292	0.00	1023.945	192	0.000	1
20070912 16:45	16.2	16.2	16.2	61	8.7	0	3	292	0.00	1023.911	157	0.000	1
20070912 16:50	16.2	16.2	16.2	56	7.4	2	5	292	0.00	1023.911	155	0.000	1
20070912 16:55	16.3	16.3	16.3	53	6.7	0	2	292	0.00	1023.911	162	0.000	1
20070912 17:00	16.3	16.3	16.3	54	7.0	0	2	292	0.00	1023.945	174	0.080	1
20070912 17:05	16.3	16.3	16.3	55	7.3	0	2	292	0.00	1023.878	188	0.000	1
20070912 17:10	16.6	16.6	16.6	56	7.7	0	2	225	0.00	1023.776	180	0.000	1
20070912 17:15	16.7	16.7	16.7	57	8.2	2	6	225	0.00	1023.742	151	0.000	1
20070912 17:20	16.6	16.6	16.6	58	8.3	2	3	45	0.00	1023.810	126	0.000	1
20070912 17:25	16.4	16.4	16.4	59	8.4	3	6	0	0.00	1023.742	132	0.000	1
20070912 17:30	16.4	16.4	16.4	59	8.4	2	5	67	0.00	1023.776	141	0.000	1
20070912 17:35	16.5	16.5	16.5	60	8.7	2	8	22	0.00	1023.742	146	0.000	1
20070912 17:40	16.6	16.6	16.6	61	9.1	2	5	0	0.00	1023.708	210	0.000	1
20070912 17:45	16.7	16.7	16.7	60	8.9	3	8	22	0.00	1023.674	272	0.000	0
20070912 17:50	16.7	16.7	16.7	61	9.1	5	10	45	0.00	1023.674	215	0.000	0
20070912 17:55	16.4	16.4	16.4	63	9.4	6	10	45	0.00	1023.742	107	0.000	0
20070912 18:00	16.1	16.1	16.1	67	10.0	6	11	22	0.00	1023.776	80	0.080	0
20070912 18:05	15.8	15.8	15.8	68	9.9	5	8	22	0.00	1023.776	70	0.000	0
20070912 18:10	15.7	15.7	15.7	68	9.8	3	6	22	0.00	1023.911	68	0.000	0
20070912 18:15	15.5	15.5	15.5	70	10.0	3	5	22	0.00	1023.878	62	0.000	0
20070912 18:20	15.4	15.4	15.4	70	10.0	3	6	0	0.00	1023.878	58	0.000	0
20070912 18:25	15.3	15.3	15.3	71	10.1	2	3	22	0.00	1023.844	47	0.000	0
20070912 18:30	15.2	15.2	15.2	72	10.2	2	5	22	0.00	1023.810	35	0.000	0
20070912 18:35	15.0	15.0	15.0	73	10.2	2	5	22	0.00	1023.776	32	0.000	0
20070912 18:40	15.0	15.0	15.0	74	10.4	3	5	22	0.00	1023.776	39	0.000	0
20070912 18:45	14.8	14.8	14.8	74	10.2	2	5	22	0.00	1023.776	29	0.000	0
20070912 18:50	14.7	14.7	14.7	74	10.1	2	3	22	0.00	1023.810	26	0.000	0
20070912 18:55	14.7	14.7	14.7	75	10.3	0	2	22	0.00	1023.979	24	0.000	0
20070912 19:00	14.6	14.6	14.6	75	10.2	0	2	22	0.00	1023.979	23	0.020	0
20070912 19:05	14.6	14.6	14.6	76	10.4	0	0	22	0.00	1023.979	19	0.000	0
20070912 19:10	14.5	14.5	14.5	77	10.5	0	0	22	0.00	1024.047	17	0.000	0
20070912 19:15	14.4	14.4	14.4	78	10.6	0	0	22	0.00	1024.081	13	0.000	0
20070912 19:20	14.2	14.2	14.2	79	10.6	0	0	22	0.00	1024.115	11	0.000	0
20070912 19:25	14.1	14.1	14.1	80	10.7	0	0	22	0.00	1024.081	8	0.000	0
20070912 19:30	13.9	13.9	13.9	79	10.3	0	0	22	0.00	1024.148	4	0.000	0
20070912 19:35	13.7	13.7	13.7	80	10.3	0	2	22	0.00	1024.216	0	0.000	0
20070912 19:40	13.4	13.4	13.4	80	10.1	2	5	22	0.00	1024.352	0	0.000	0
20070912 19:45	13.3	13.3	13.3	80	9.9	2	5	22	0.00	1024.352	0	0.000	0
20070912 19:50	13.2	13.2	13.2	81	10.0	0	2	22	0.00	1024.352	0	0.000	0
20070912 19:55	13.1	13.1	13.1	80	9.7	0	0	22	0.00	1024.555	0	0.000	0
20070912 20:00	13.0	13.0	13.0	82	10.0	0	0	22	0.00	1024.589	0	0.000	0
20070912 20:05	12.8	12.8	12.8	81	9.7	0	0	22	0.00	1024.589	0	0.000	0
20070912 20:10	12.8	12.8	12.8	82	9.8	0	2	22	0.00	1024.623	0	0.000	0
20070912 20:15	12.7	12.7	12.7	81	9.5	0	2	22	0.00	1024.724	0	0.000	0
20070912 20:20	12.7	12.7	12.7	81	9.5	0	0	22	0.00	1024.792	0	0.000	0
20070912 20:25	12.6	12.6	12.6	81	9.4	0	0	22	0.00	1024.758	0	0.000	0
20070912 20:30	12.6	12.6	12.6	81	9.4	0	2	22	0.00	1024.893	0	0.000	0
20070912 20:35	12.4	12.4	12.4	81	9.3	0	2	22	0.00	1024.995	0	0.000	0
20070912 20:40	12.3	12.3	12.3	82	9.3	0	0	22	0.00	1024.995	0	0.000	0
20070912 20:45	12.2	12.2	12.2	82	9.2	0	0	22	0.00	1025.063	0	0.000	0
20070912 20:50	12.2	12.2	12.2	82	9.2	0	0	22	0.00	1025.130	0	0.000	0
20070912 20:55	12.1	12.1	12.1	83	9.3	0	0	22	0.00	1025.130	0	0.000	0
20070912 21:00	11.8	11.8	11.8	83	9.0	0	0	22	0.00	1025.300	0	0.020	0
20070912 21:05	11.7	11.7	11.7	84	9.1	0	0	22	0.00	1025.198	0	0.000	0
20070912 21:10	11.5	11.5	11.5	85	9.1	0	0	22	0.00	1025.198	0	0.000	0
20070912 21:15	11.3	11.3	11.3	86	9.1	0	0	22	0.00	1025.435	0	0.000	0
20070912 21:20	11.2	11.2	11.2	86	9.0	0	0	22	0.00	1025.469	0	0.000	0
20070912 21:25	11.1	11.1	11.1	87	9.0	0	0	22	0.00	1025.537	0	0.000	0
20070912 21:30	10.9	10.9	10.9	87	8.9	0	0	22	0.00	1025.503	0	0.000	0
20070912 21:35	10.8	10.8	10.8	87	8.8	0	0	22	0.00	1025.571	0	0.000	0
20070912 21:40	10.7	10.7	10.7	88	8.8	0	0	22	0.00	1025.571	0	0.000	0
20070912 21:45	10.6	10.6	10.6	88	8.7	0	0	22	0.00	1025.604	0	0.000	0
20070912 21:50	10.5	10.5	10.5	88	8.6	0	2	22	0.00	1025.672	0	0.000	0
20070912 21:55	10.4	10.4	10.4	88	8.5	0	0	22	0.00	1025.672	0	0.000	0
20070912 22:00	10.3	10.3	10.3	88	8.4	0	0	22	0.00	1025.672	0	0.000	0
20070912 22:05	10.3	10.3	10.3	88	8.4	0	0	22	0.00	1025.740	0	0.000	0
20070912 22:10	10.2	10.2	10.2	88	8.3	0	0	22	0.00	1025.672	0	0.000	0
20070912 22:15	10.1	10.1	10.1	88	8.2	0	0	22	0.00	1025.740	0	0.000	0
20070912 22:20	10.0	10.0	10.0	89	8.3	0	0	22	0.00	1025.672	0	0.000	0
20070912 22:25	9.9	9.9	9.9	89	8.2	0	0	22	0.00	1025.638	0	0.000	0
20070912 22:30	9.8	9.8	9.8	89	8.1	0	0	22	0.00	1025.672	0	0.000	0
20070912 22:35	9.7	9.7	9.7	90	8.2	0	2	22	0.00	1025.740	0	0.000	0
20070912 22:40	9.7	9.7	9.7	90	8.2	0	2	22	0.00	1025.740	0	0.000	0
20070912 22:45	9.7	9.7	9.7	90	8.1	0	2	22	0.00	1025.875	0	0.000	0
20070912 22:50	9.7	9.7	9.7	90	8.1	0	0	22	0.00	1025.943	0	0.000	0
20070912 22:55	9.6	9.6	9.6	90	8.1	0	0	22	0.00	1025.977	0	0.000	0
20070912 23:00	9.6	9.6	9.6	90	8.1	0	0	22	0.00	1025.909	0	0.000	0
20070912 23:05	9.6	9.6	9.6	90	8.1	0	2	90	0.00	1025.808	0	0.000	0
20070912 23:10	9.6	9.6	9.6	90	8.1	0	2	90	0.00	1025.842	0	0.000	0
20070912 23:15	9.6	9.6	9.6	90	8.1	0	2	112	0.00	1025.842	0	0.000	0
20070912 23:20	9.6	9.6	9.6	90	8.0	0	2	112	0.00	1025.808	0	0.000	0
20070912 23:25	9.6	9.6	9.6	90	8.0	0	2	112	0.00	1025.774	0	0.000	0
20070912 23:30	9.6	9.6	9.6	90	8.0	0	2	112	0.00	1025.875	0	0.000	0
20070912 23:35	9.6	9.6	9.6	90	8.0	0	2	112	0.00	1025.943	0	0.000	0
20070912 23:40	9.6	9.6	9.6	90	8.0	0	2	135	0.00	1026.011	0	0.000	0
20070912 23:45	9.6	9.6	9.6	90	8.0	0	2	135	0.00	1026.011	0	0.000	0
20070912 23:50	9.6	9.6	9.6	90	8.0	0	5	135	0.00	1026.045	0	0.000	0
20070912 23:55	9.4	9.4	9.4	90	7.9	0	2	135	0.00	1026.079	0	0.000	0
20070912 24:00	9.4	9.4	9.4	90	7.9	0	2	135	0.00	1026.113	0	0.000	0



Please note the license to use and transfer of this data:
http://creativecommons.org/licenses/by-nc-sa/3.0/deed.en

Bitte beachten sie die Lizenz zur Verwertung und Weitergabe der Daten:
http://creativecommons.org/licenses/by-nc-sa/3.0/deed.de

zurück zur Übersicht der Archivdaten (Monats und Tagesdaten)

Cookies helfen bei der Bereitstellung von Inhalten. Durch die Nutzung dieser Seiten erklärst du dich damit einverstanden, dass Cookies auf deinem Rechner gespeichert werden. Weitere Information